GW6929 Weather Reports


time (UTC)temp
C
wind
direction
speed
KPH
gust
KPH
rain 1hr
cm
rain 24hr
cm
rain mn
cm
humidity
%
barometer
mb
20260507154004 26 337 3.2 4.8 0.00 0.00 0.00 23 1028.7
20260507153504 26 341 1.6 4.8 0.00 0.00 0.00 24 1028.7
20260507153003 26 340 1.6 4.8 0.00 0.00 0.00 23 1028.7
20260507152503 26 333 1.6 4.8 0.00 0.00 0.00 25 1028.7
20260507152003 25 327 1.6 4.8 0.00 0.00 0.00 28 1028.7
20260507151504 25 331 1.6 4.8 0.00 0.00 0.00 29 1028.7
20260507151024 25 333 1.6 4.8 0.00 0.00 0.00 29 1028.7
20260507150524 25 324 1.6 6.4 0.00 0.00 0.00 29 1028.7
20260507150003 25 324 1.6 6.4 0.00 0.00 0.00 30 1028.7
20260507145503 24 8 3.2 9.7 0.00 0.00 0.00 32 1028.7
20260507145003 24 18 3.2 9.7 0.00 0.00 0.00 29 1028.3
20260507144503 24 13 1.6 8.0 0.00 0.00 0.00 31 1028.7
20260507144003 23 9 3.2 6.4 0.00 0.00 0.00 28 1028.3
20260507143524 23 13 3.2 6.4 0.00 0.00 0.00 31 1028.7
20260507143003 23 14 3.2 6.4 0.00 0.00 0.00 29 1028.7
20260507142504 23 27 3.2 6.4 0.00 0.00 0.00 28 1028.7
20260507142003 22 26 1.6 6.4 0.00 0.00 0.00 29 1028.7
20260507141503 22 357 1.6 6.4 0.00 0.00 0.00 30 1028.3
20260507141003 21 359 3.2 6.4 0.00 0.00 0.00 31 1028.7
20260507140524 21 14 1.6 6.4 0.00 0.00 0.00 31 1028.3
20260507140003 20 36 1.6 6.4 0.00 0.00 0.00 32 1028.7
20260507135503 18 46 1.6 6.4 0.00 0.00 0.00 35 1028.7
20260507135003 17 45 1.6 6.4 0.00 0.00 0.00 39 1028.3
20260507134503 17 109 1.6 4.8 0.00 0.00 0.00 45 1028.0
20260507134003 17 99 1.6 4.8 0.00 0.00 0.00 42 1028.3
20260507133524 16 111 1.6 4.8 0.00 0.00 0.00 44 1028.0
20260507133003 16 136 1.6 4.8 0.00 0.00 0.00 45 1028.0
20260507132503 16 124 1.6 4.8 0.00 0.00 0.00 42 1028.3
20260507132003 15 93 1.6 4.8 0.00 0.00 0.00 46 1028.0
20260507131503 15 87 1.6 4.8 0.00 0.00 0.00 46 1028.3
20260507131003 15 80 1.6 4.8 0.00 0.00 0.00 46 1028.3
20260507130524 15 78 3.2 4.8 0.00 0.00 0.00 44 1028.0
20260507130003 15 55 3.2 8.0 0.00 0.00 0.00 45 1028.0
20260507125503 15 32 3.2 8.0 0.00 0.00 0.00 46 1028.0
20260507125003 15 53 3.2 8.0 0.00 0.00 0.00 47 1028.0
20260507124506 15 102 3.2 6.4 0.00 0.00 0.00 52 1027.6
20260507124006 16 90 1.6 4.8 0.00 0.00 0.00 52 1028.0
20260507123506 16 80 3.2 4.8 0.00 0.00 0.00 38 1028.0
20260507123006 16 108 3.2 4.8 0.00 0.00 0.00 38 1028.0
20260507122507 16 114 3.2 4.8 0.00 0.00 0.00 37 1028.0
20260507122006 16 94 3.2 4.8 0.00 0.00 0.00 37 1028.0
20260507121527 17 73 1.6 6.4 0.00 0.00 0.00 38 1027.6
20260507121006 17 49 1.6 8.0 0.00 0.00 0.00 38 1028.0
20260507120506 17 40 3.2 8.0 0.00 0.00 0.00 38 1028.0
20260507120006 16 41 1.6 6.4 0.00 0.00 0.00 40 1027.6
20260507115506 17 45 1.6 4.8 0.00 0.00 0.00 40 1028.0
20260507115006 17 69 1.6 6.4 0.00 0.00 0.00 38 1028.0
20260507114506 17 129 1.6 6.4 0.00 0.00 0.00 38 1028.0
20260507114006 17 161 1.6 6.4 0.00 0.00 0.00 41 1028.0
20260507113506 17 11 3.2 9.7 0.00 0.00 0.00 39 1028.0
20260507113006 17 31 3.2 9.7 0.00 0.00 0.00 37 1028.3
20260507112506 17 90 3.2 8.0 0.00 0.00 0.00 36 1028.3
20260507112027 17 97 3.2 6.4 0.00 0.00 0.00 36 1028.3
20260507111507 17 121 3.2 9.7 0.00 0.00 0.00 36 1028.3
20260507111006 17 162 3.2 9.7 0.00 0.00 0.00 37 1028.0
20260507110506 17 185 3.2 9.7 0.00 0.00 0.00 36 1028.0
20260507110006 17 176 1.6 6.4 0.00 0.00 0.00 36 1028.3
20260507105506 18 148 1.6 6.4 0.00 0.00 0.00 35 1028.3
20260507105006 17 86 1.6 8.0 0.00 0.00 0.00 37 1028.3
20260507104506 17 357 1.6 8.0 0.00 0.00 0.00 37 1028.3
20260507104006 17 17 3.2 6.4 0.00 0.00 0.00 38 1028.3
20260507103527 17 45 3.2 8.0 0.00 0.00 0.00 38 1028.7
20260507103006 17 38 3.2 8.0 0.00 0.00 0.00 38 1028.3
20260507102506 17 59 3.2 8.0 0.00 0.00 0.00 39 1028.3
20260507102007 17 179 1.6 4.8 0.00 0.00 0.00 39 1028.3
20260507101507 17 115 1.6 6.4 0.00 0.00 0.00 40 1028.3
20260507101006 17 130 1.6 6.4 0.00 0.00 0.00 40 1028.3
20260507100527 17 116 3.2 6.4 0.00 0.00 0.00 38 1028.7
20260507100005 17 69 1.6 6.4 0.00 0.00 0.00 38 1028.3
20260507095506 17 151 1.6 6.4 0.00 0.00 0.00 39 1028.3
20260507095006 17 128 3.2 6.4 0.00 0.00 0.00 40 1028.7
20260507094506 17 71 3.2 6.4 0.00 0.00 0.00 42 1028.3
20260507094006 16 57 3.2 6.4 0.00 0.00 0.00 48 1028.3
20260507093506 16 54 1.6 6.4 0.00 0.00 0.00 47 1028.3
20260507093026 16 99 1.6 4.8 0.00 0.00 0.00 46 1028.3
20260507092527 16 95 0.0 3.2 0.00 0.00 0.00 45 1028.3
20260507092006 16 125 0.0 3.2 0.00 0.00 0.00 45 1028.3
20260507091506 16 110 1.6 3.2 0.00 0.00 0.00 53 1028.3
20260507091006 16 97 1.6 3.2 0.00 0.00 0.00 43 1028.3
20260507090527 16 93 1.6 3.2 0.00 0.00 0.00 45 1028.7
20260507090006 17 104 1.6 3.2 0.00 0.00 0.00 46 1028.7
20260507085505 17 113 1.6 3.2 0.00 0.00 0.00 45 1028.7
20260507085006 17 106 1.6 3.2 0.00 0.00 0.00 48 1028.7
20260507084506 17 92 1.6 3.2 0.00 0.00 0.00 38 1028.7
20260507084006 17 85 1.6 3.2 0.00 0.00 0.00 35 1028.7
20260507083506 17 82 1.6 3.2 0.00 0.00 0.00 35 1028.7
20260507083005 17 87 1.6 3.2 0.00 0.00 0.00 36 1028.7
20260507082506 17 97 0.0 1.6 0.00 0.00 0.00 38 1028.7
20260507082005 17 101 0.0 1.6 0.00 0.00 0.00 39 1028.7
20260507081526 17 93 0.0 1.6 0.00 0.00 0.00 39 1029.0
20260507081026 17 83 0.0 3.2 0.00 0.00 0.00 34 1028.7
20260507080506 17 79 0.0 3.2 0.00 0.00 0.00 36 1029.0
20260507080005 18 67 0.0 3.2 0.00 0.00 0.00 34 1028.7
20260507075505 17 69 0.0 3.2 0.00 0.00 0.00 34 1028.7
20260507075005 17 85 0.0 3.2 0.00 0.00 0.00 35 1028.7
20260507074505 17 87 1.6 1.6 0.00 0.00 0.00 35 1028.7
20260507074026 17 86 1.6 3.2 0.00 0.00 0.00 36 1028.7
20260507073527 17 89 1.6 3.2 0.00 0.00 0.00 36 1028.7
20260507073005 17 84 1.6 3.2 0.00 0.00 0.00 36 1029.0
20260507072505 18 88 1.6 3.2 0.00 0.00 0.00 38 1029.0
20260507072006 18 91 0.0 3.2 0.00 0.00 0.00 40 1029.0
20260507071526 18 70 0.0 3.2 0.00 0.00 0.00 35 1028.7
20260507071005 18 70 1.6 3.2 0.00 0.00 0.00 35 1029.0
20260507070526 18 83 1.6 3.2 0.00 0.00 0.00 35 1029.0
20260507070026 18 75 1.6 3.2 0.00 0.00 0.00 35 1029.0
20260507065505 18 70 1.6 3.2 0.00 0.00 0.00 36 1029.0
20260507065005 18 87 1.6 1.6 0.00 0.00 0.00 36 1029.0
20260507064505 18 86 0.0 1.6 0.00 0.00 0.00 39 1029.0
20260507064005 18 83 0.0 1.6 0.00 0.00 0.00 39 1029.0
20260507063505 18 90 0.0 1.6 0.00 0.00 0.00 41 1029.0
20260507063005 18 85 0.0 1.6 0.00 0.00 0.00 38 1029.0
20260507062505 18 85 0.0 1.6 0.00 0.00 0.00 36 1028.7
20260507062005 18 120 0.0 3.2 0.00 0.00 0.00 36 1029.0
20260507061505 18 128 0.0 3.2 0.00 0.00 0.00 40 1028.7
20260507061026 19 101 0.0 3.2 0.00 0.00 0.00 44 1029.0
20260507060505 19 69 0.0 3.2 0.00 0.00 0.00 33 1029.0
20260507060026 19 67 0.0 3.2 0.00 0.00 0.00 33 1029.0
20260507055526 19 77 0.0 1.6 0.00 0.00 0.00 33 1028.7
20260507055005 19 90 0.0 1.6 0.00 0.00 0.00 33 1028.7
20260507054526 19 82 0.0 1.6 0.00 0.00 0.00 34 1029.0
20260507054005 19 62 0.0 3.2 0.00 0.00 0.00 36 1029.0
20260507053505 19 85 0.0 3.2 0.00 0.00 0.00 36 1029.0
20260507053005 19 102 0.0 3.2 0.00 0.00 0.00 38 1028.7
20260507052505 20 100 0.0 3.2 0.00 0.00 0.00 39 1028.7
20260507052005 20 120 1.6 3.2 0.00 0.00 0.00 40 1028.7
20260507051526 20 128 0.0 3.2 0.00 0.00 0.00 41 1028.7
20260507051005 20 116 0.0 3.2 0.00 0.00 0.00 38 1028.7
20260507050505 20 116 0.0 3.2 0.00 0.00 0.00 40 1028.7
20260507050006 20 129 0.0 3.2 0.00 0.00 0.00 40 1028.7
20260507045505 20 134 0.0 3.2 0.00 0.00 0.00 40 1028.7
20260507045005 21 118 0.0 1.6 0.00 0.00 0.00 38 1028.3
20260507044505 21 102 0.0 1.6 0.00 0.00 0.00 35 1028.3
20260507044004 21 98 0.0 3.2 0.00 0.00 0.00 35 1028.7
20260507043505 21 99 1.6 3.2 0.00 0.00 0.00 35 1028.3
20260507043005 22 95 1.6 3.2 0.00 0.00 0.00 32 1028.3
20260507042504 22 90 1.6 4.8 0.00 0.00 0.00 32 1028.3
20260507042005 22 97 3.2 4.8 0.00 0.00 0.00 31 1028.3
20260507041505 22 91 1.6 4.8 0.00 0.00 0.00 31 1028.3
20260507041025 22 85 1.6 4.8 0.00 0.00 0.00 30 1028.3
20260507040505 22 87 1.6 4.8 0.00 0.00 0.00 30 1028.3
20260507040005 22 86 1.6 3.2 0.00 0.00 0.00 30 1028.0
20260507035526 22 96 1.6 4.8 0.00 0.00 0.00 30 1028.0
20260507035005 23 102 1.6 4.8 0.00 0.00 0.00 30 1028.0
20260507034505 23 108 3.2 4.8 0.00 0.00 0.00 29 1028.0
20260507034004 23 111 1.6 4.8 0.00 0.00 0.00 29 1028.0
20260507033505 23 110 1.6 4.8 0.00 0.00 0.00 29 1028.0
20260507033004 23 105 1.6 4.8 0.00 0.00 0.00 29 1027.6
20260507032504 23 96 0.0 4.8 0.00 0.00 0.00 28 1027.3
20260507032025 23 103 0.0 3.2 0.00 0.00 0.00 28 1027.3
20260507031504 23 124 0.0 3.2 0.00 0.00 0.00 28 1027.6
20260507031005 23 130 0.0 1.6 0.00 0.00 0.00 28 1027.3
20260507030505 23 123 0.0 1.6 0.00 0.00 0.00 29 1027.3
20260507030004 23 127 0.0 3.2 0.00 0.00 0.00 29 1027.3
20260507025504 23 121 0.0 3.2 0.00 0.00 0.00 28 1027.3
20260507025005 24 122 0.0 3.2 0.00 0.00 0.00 28 1027.3
20260507024505 24 134 0.0 3.2 0.00 0.00 0.00 28 1026.9
20260507024025 25 136 0.0 3.2 0.00 0.00 0.00 28 1026.9
20260507023504 25 132 1.6 4.8 0.00 0.00 0.00 28 1026.9
20260507023025 25 112 1.6 4.8 0.00 0.00 0.00 27 1026.9
20260507022504 26 98 1.6 4.8 0.00 0.00 0.00 26 1026.9
20260507022004 26 105 1.6 4.8 0.00 0.00 0.00 27 1026.9
20260507021525 26 110 1.6 4.8 0.00 0.00 0.00 26 1026.9
20260507021004 26 117 1.6 4.8 0.00 0.00 0.00 26 1026.9
20260507020525 26 164 0.0 3.2 0.00 0.00 0.00 27 1026.9
20260507020004 27 136 1.6 6.4 0.00 0.00 0.00 26 1026.9
20260507015504 27 123 3.2 6.4 0.00 0.00 0.00 25 1026.9
20260507015025 27 119 1.6 6.4 0.00 0.00 0.00 23 1026.9
20260507014504 27 112 1.6 6.4 0.00 0.00 0.00 22 1026.9
20260507014004 28 92 1.6 6.4 0.00 0.00 0.00 21 1026.9
20260507013504 28 84 1.6 4.8 0.00 0.00 0.00 20 1026.9
20260507013004 28 107 1.6 4.8 0.00 0.00 0.00 20 1026.9
20260507012525 28 101 1.6 4.8 0.00 0.00 0.00 19 1026.6
20260507012004 28 106 1.6 4.8 0.00 0.00 0.00 19 1026.6
20260507011504 28 104 1.6 6.4 0.00 0.00 0.00 20 1026.9
20260507011004 28 91 1.6 8.0 0.00 0.00 0.00 20 1026.9
20260507010504 28 109 3.2 8.0 0.00 0.00 0.00 19 1026.6
20260507010025 29 120 3.2 6.4 0.00 0.00 0.00 19 1026.9
20260507005504 29 114 1.6 6.4 0.00 0.00 0.00 19 1026.9
20260507005004 29 124 3.2 8.0 0.00 0.00 0.00 19 1026.9
20260507004504 29 110 3.2 8.0 0.00 0.00 0.00 18 1026.9
20260507004004 30 108 3.2 8.0 0.00 0.00 0.00 19 1026.9
20260507003504 30 119 1.6 8.0 0.00 0.00 0.00 18 1026.9
20260507003004 31 128 1.6 8.0 0.00 0.00 0.00 17 1026.9
20260507002504 31 339 1.6 8.0 0.00 0.00 0.00 17 1026.9
20260507002004 31 12 1.6 8.0 0.00 0.00 0.00 17 1026.9
20260507001504 31 12 1.6 8.0 0.00 0.00 0.00 17 1027.3
20260507001004 31 3 1.6 6.4 0.00 0.00 0.00 17 1027.3
20260507000504 31 74 1.6 4.8 0.00 0.00 0.00 17 1027.3
20260507000004 31 197 1.6 8.0 0.00 0.00 0.00 17 1026.9
20260506235525 31 184 1.6 8.0 0.00 0.00 0.00 17 1026.9
20260506235004 31 29 1.6 6.4 0.00 0.00 0.00 17 1026.9
20260506234504 31 27 1.6 6.4 0.00 0.00 0.00 18 1026.9
20260506234004 30 125 1.6 8.0 0.00 0.00 0.00 18 1026.9
20260506233504 30 152 3.2 8.0 0.00 0.00 0.00 19 1027.3
20260506233004 30 127 3.2 8.0 0.00 0.00 0.00 18 1026.9
20260506232504 30 132 3.2 9.7 0.00 0.00 0.00 18 1027.3
20260506232025 30 157 3.2 9.7 0.00 0.00 0.00 18 1027.3
20260506231525 30 137 3.2 9.7 0.00 0.00 0.00 19 1027.3
20260506231004 30 149 1.6 8.0 0.00 0.00 0.00 18 1027.3
20260506230525 30 149 3.2 8.0 0.00 0.00 0.00 18 1027.6
20260506230024 30 139 3.2 8.0 0.00 0.00 0.00 18 1027.3
20260506225504 30 140 3.2 8.0 0.00 0.00 0.00 18 1027.3
20260506225004 31 129 1.6 6.4 0.00 0.00 0.00 18 1027.6
20260506224525 30 156 1.6 6.4 0.00 0.00 0.00 19 1027.6
20260506224004 30 165 3.2 8.0 0.00 0.00 0.00 19 1027.6
20260506223504 30 165 3.2 8.0 0.00 0.00 0.00 19 1027.6
20260506223003 31 165 1.6 8.0 0.00 0.00 0.00 18 1028.0
20260506222504 31 170 1.6 8.0 0.00 0.00 0.00 18 1027.6
20260506222004 30 135 1.6 9.7 0.00 0.00 0.00 18 1028.0
20260506221504 30 122 1.6 9.7 0.00 0.00 0.00 18 1028.0
20260506221003 30 116 1.6 9.7 0.00 0.00 0.00 19 1028.0
20260506220503 30 124 3.2 9.7 0.00 0.00 0.00 19 1028.0
20260506220024 30 123 3.2 9.7 0.00 0.00 0.00 19 1028.0
20260506215503 30 101 3.2 9.7 0.00 0.00 0.00 19 1028.3
20260506215004 30 120 3.2 12.9 0.00 0.00 0.00 19 1028.3
20260506214504 30 115 3.2 12.9 0.00 0.00 0.00 19 1028.3
20260506214004 29 126 1.6 9.7 0.00 0.00 0.00 19 1028.7
20260506213503 29 146 3.2 12.9 0.00 0.00 0.00 19 1028.7
20260506213004 29 151 3.2 12.9 0.00 0.00 0.00 19 1028.7
20260506212504 30 140 3.2 9.7 0.00 0.00 0.00 20 1028.7
20260506212003 30 90 3.2 9.7 0.00 0.00 0.00 18 1029.0
20260506211503 30 118 3.2 9.7 0.00 0.00 0.00 21 1029.0
20260506211004 30 142 1.6 8.0 0.00 0.00 0.00 18 1029.0
20260506210503 30 113 1.6 8.0 0.00 0.00 0.00 18 1029.4
20260506210003 30 133 1.6 6.4 0.00 0.00 0.00 19 1029.4
20260506205503 30 155 1.6 6.4 0.00 0.00 0.00 20 1029.4
20260506205003 29 112 1.6 6.4 0.00 0.00 0.00 20 1029.4
20260506204503 28 168 3.2 11.3 0.00 0.00 0.00 19 1029.4
20260506204024 28 185 1.6 11.3 0.00 0.00 0.00 19 1029.7
20260506203503 28 237 1.6 8.0 0.00 0.00 0.00 20 1029.4
20260506203003 28 204 3.2 8.0 0.00 0.00 0.00 19 1029.7
20260506202524 29 112 3.2 9.7 0.00 0.00 0.00 18 1029.7
20260506202003 28 75 1.6 9.7 0.00 0.00 0.00 18 1029.7
20260506201503 28 94 3.2 11.3 0.00 0.00 0.00 20 1029.7
20260506201003 27 116 3.2 11.3 0.00 0.00 0.00 19 1029.7
20260506200524 28 84 1.6 11.3 0.00 0.00 0.00 19 1029.7
20260506200003 27 355 1.6 8.0 0.00 0.00 0.00 20 1029.7
20260506195503 27 352 1.6 8.0 0.00 0.00 0.00 20 1029.7
20260506195003 28 53 3.2 6.4 0.00 0.00 0.00 20 1030.1
20260506194503 28 74 3.2 8.0 0.00 0.00 0.00 19 1030.1
20260506194003 27 1 3.2 8.0 0.00 0.00 0.00 20 1030.1
20260506193503 27 9 3.2 8.0 0.00 0.00 0.00 21 1030.1
20260506193013 27 42 3.2 9.7 0.00 0.00 0.00 20 1030.1
20260506192513 28 71 3.2 9.7 0.00 0.00 0.00 19 1030.1
20260506192013 27 110 4.8 9.7 0.00 0.00 0.00 20 1030.1
20260506191513 27 142 3.2 9.7 0.00 0.00 0.00 21 1030.1
20260506191013 28 148 1.6 12.9 0.00 0.00 0.00 20 1030.1
20260506190513 27 102 3.2 12.9 0.00 0.00 0.00 21 1030.5
20260506190013 27 111 3.2 12.9 0.00 0.00 0.00 19 1030.5
20260506185513 27 113 4.8 8.0 0.00 0.00 0.00 20 1030.5
20260506185034 27 106 3.2 8.0 0.00 0.00 0.00 21 1030.8
20260506184534 27 112 3.2 9.7 0.00 0.00 0.00 22 1030.5
20260506184013 27 94 3.2 9.7 0.00 0.00 0.00 21 1030.8
20260506183513 27 59 1.6 8.0 0.00 0.00 0.00 22 1030.5
20260506183013 27 65 1.6 8.0 0.00 0.00 0.00 22 1030.8
20260506182513 27 65 1.6 8.0 0.00 0.00 0.00 23 1030.8
20260506182034 27 80 3.2 8.0 0.00 0.00 0.00 23 1031.2
20260506181513 27 129 3.2 8.0 0.00 0.00 0.00 23 1030.8
20260506181013 27 135 1.6 8.0 0.00 0.00 0.00 24 1030.8
20260506180513 27 64 1.6 6.4 0.00 0.00 0.00 24 1031.2
20260506180013 26 68 1.6 8.0 0.00 0.00 0.00 25 1030.8
20260506175513 26 98 3.2 8.0 0.00 0.00 0.00 25 1031.2
20260506175013 26 90 1.6 6.4 0.00 0.00 0.00 25 1031.2
20260506174534 26 74 1.6 8.0 0.00 0.00 0.00 26 1031.2
20260506174013 26 78 1.6 8.0 0.00 0.00 0.00 26 1031.2
20260506173513 25 104 3.2 11.3 0.00 0.00 0.00 27 1030.8
20260506173013 25 97 3.2 11.3 0.00 0.00 0.00 27 1031.2
20260506172534 25 95 3.2 8.0 0.00 0.00 0.00 27 1031.2
20260506172013 25 139 3.2 8.0 0.00 0.00 0.00 28 1031.2
20260506171513 24 137 3.2 12.9 0.00 0.00 0.00 29 1031.2
20260506171013 25 133 3.2 12.9 0.00 0.00 0.00 28 1031.2
20260506170513 25 149 3.2 9.7 0.00 0.00 0.00 28 1031.2
20260506170034 25 142 1.6 6.4 0.00 0.00 0.00 28 1030.8
20260506165534 24 113 1.6 9.7 0.00 0.00 0.00 29 1030.8
20260506165013 23 103 3.2 9.7 0.00 0.00 0.00 30 1030.8
20260506164513 23 89 3.2 9.7 0.00 0.00 0.00 29 1030.8
20260506164013 23 112 3.2 9.7 0.00 0.00 0.00 30 1030.8
20260506163513 23 116 3.2 9.7 0.00 0.00 0.00 31 1031.2
20260506163013 23 100 3.2 9.7 0.00 0.00 0.00 32 1031.2
20260506162513 22 105 3.2 9.7 0.00 0.00 0.00 32 1030.8
20260506162013 22 112 3.2 9.7 0.00 0.00 0.00 33 1031.2
20260506161513 22 103 3.2 9.7 0.00 0.00 0.00 34 1030.8
20260506161013 22 90 3.2 8.0 0.00 0.00 0.00 32 1030.8
20260506160513 22 81 3.2 8.0 0.00 0.00 0.00 35 1030.8
20260506160013 22 106 1.6 8.0 0.00 0.00 0.00 36 1031.2
20260506155513 21 111 1.6 8.0 0.00 0.00 0.00 37 1031.2
20260506155033 21 97 3.2 8.0 0.00 0.00 0.00 37 1030.8
20260506154513 21 78 3.2 6.4 0.00 0.00 0.00 37 1030.8